Location: Fenile
(46.0500°N, 9.5500°E)
Time: 13:22:00
(UTC+00:00)

NOSS 3-3 (C) - Pass Details

Date: 03 March 2021
Orbit: 815 x 1397 km, 63.4° (Epoch: 19 March)

Event Time Altitude Azimuth Distance (km) Brightness Sun altitude
Rises 20:08:33 0° 321° (NW) 3,952 8.1 -30.9°
Reaches altitude 10° 20:11:06 10° 322° (NW) 3,069 7.3 -31.3°
Maximum altitude 20:18:38 81° 50° (NE) 1,291 4.4 -32.4°
Enters shadow 20:18:47 81° 69° (ENE) 1,294 4.4 -32.4°
